This is the latest recevied weather packets stored in our database for station/object VE8SKI. If no packets are shown the sender has not sent any weather packets the latest 10 day(s).
| Time | Temp. | Humidity | Pressure | Rain* | Wind** | Luminosity | Snow |
|---|---|---|---|---|---|---|---|
| 1777928891 | 3.89° C | 65% | 1023.6 hPa | 0 mm | 0 m/s | - | - |
| 1777928592 | 3.89° C | 64% | 1023.6 hPa | 0 mm | 0.89 m/s, 51° | - | - |
| 1777928292 | 3.89° C | 64% | 1023.6 hPa | 0 mm | 0 m/s | - | - |
| 1777927990 | 3.33° C | 64% | 1023.6 hPa | 0 mm | 0 m/s | - | - |
| 1777927690 | 3.33° C | 65% | 1023.6 hPa | 0 mm | 1.79 m/s, 316° | - | - |
| 1777927391 | 3.33° C | 65% | 1023.6 hPa | 0 mm | 0 m/s | - | - |
| 1777927091 | 3.33° C | 65% | 1023.8 hPa | 0 mm | 0.45 m/s, 246° | - | - |
| 1777926792 | 3.89° C | 64% | 1023.8 hPa | 0 mm | 0.45 m/s, 357° | - | - |
| 1777926492 | 3.89° C | 65% | 1023.6 hPa | 0 mm | 0.89 m/s, 333° | - | - |
| 1777926190 | 3.33° C | 66% | 1023.8 hPa | 0 mm | 0.89 m/s, 3° | - | - |
| 1777925890 | 2.78° C | 67% | 1023.8 hPa | 0 mm | 0.45 m/s, 245° | - | - |
| 1777925591 | 3.33° C | 65% | 1023.8 hPa | 0 mm | 2.68 m/s, 210° | - | - |
| 1777925291 | 3.89° C | 63% | 1023.8 hPa | 0 mm | 0 m/s | - | - |
| 1777924992 | 3.33° C | 63% | 1023.9 hPa | 0 mm | 0 m/s | - | - |
| 1777924692 | 3.33° C | 65% | 1023.9 hPa | 0 mm | 0.45 m/s, 283° | - | - |
| 1777924390 | 3.33° C | 63% | 1023.9 hPa | 0 mm | 1.79 m/s, 336° | - | - |
| 1777924090 | 3.33° C | 65% | 1023.9 hPa | 0 mm | 0 m/s | - | - |
| 1777923791 | 3.33° C | 65% | 1023.9 hPa | 0 mm | 0.89 m/s, 23° | - | - |
| 1777923491 | 2.78° C | 64% | 1024 hPa | 0 mm | 1.79 m/s, 167° | - | - |
| 1777923191 | 3.89° C | 63% | 1024 hPa | 0 mm | 0.89 m/s, 322° | - | - |
| 1777922892 | 3.33° C | 64% | 1024.1 hPa | 0 mm | 1.34 m/s, 316° | - | - |
| 1777922589 | 3.33° C | 63% | 1024 hPa | 0 mm | 1.34 m/s, 201° | - | - |
| 1777922290 | 3.33° C | 65% | 1024.1 hPa | 0 mm | 0.45 m/s, 135° | - | - |
| 1777921990 | 3.33° C | 64% | 1024.2 hPa | 0 mm | 0.89 m/s, 249° | - | - |
| 1777921691 | 3.33° C | 63% | 1024.2 hPa | 0 mm | 0.89 m/s, 233° | - | - |
* Rain latest hour (hover to see other rain measurements)
** Current wind speed in m/s (hover to see current wind gust speed)